Home > Weather > Hamilton > Past weeks

Flag for Bermuda Weather for the Past 2 Weeks in Hamilton, Bermuda

Now
73 °F

Scattered clouds.


Feels Like: 75 °F
Forecast: 69 / 75 °F
Wind: 8 mph from Southeast

Location: Bermuda

Current Time: May 3, 2016 at 2:18:17 PM

Latest Report: May 3, 2016 at 1:55 PM


Visibility: N/A

Pressure: 30.12 "Hg

Humidity: 74%

Dew Point: 64 °F

Location of HamiltonLocation

Historic Weather in Hamilton — Graph

°F

Hamilton Temperature Yesterday

Maximum temperature yesterday: 73 °F (at 12:55 PM)
Minimum temperature yesterday: 66 °F (at 2:55 AM)
Average temperature yesterday: 69 °F

High & Low Weather Summary for the Past Weeks

 TemperatureHumidityPressure
High75 °F (Apr 30, 11:55 AM)88% (Apr 24, 7:55 AM)30.24 "Hg (Apr 24, 7:55 AM)
Low59 °F (Apr 20, 9:55 PM)49% (Apr 20, 4:55 PM)29.68 "Hg (Apr 24, 3:55 PM)
Average68 °F71%30.03 "Hg
* Reported Apr 18 12:55 PM — May 3 12:55 PM, Hamilton, Weather by CustomWeather, © 2016

Note: Actual official high and low records may vary slightly from our data, if they occured in-between our weather recording intervals... More about our weather records

Advertising

Hamilton Weather History for the Previous 24 Hours

Scroll right to see more
 ConditionsComfort  
Time TempWeatherWind HumidityBarometerVisibility
12:55 PM
Tue, May 3
73 °FPassing clouds.8 mph69%30.15 "HgN/A
11:55 AM73 °FPassing clouds.8 mph69%30.15 "HgN/A
10:55 AM73 °FScattered clouds.7 mph69%30.18 "HgN/A
9:55 AM72 °FScattered clouds.7 mph73%30.18 "HgN/A
8:55 AM72 °FScattered clouds.6 mph69%30.18 "HgN/A
7:55 AM70 °FScattered clouds.6 mph78%30.18 "HgN/A
6:55 AM68 °FPassing clouds.6 mph78%30.15 "HgN/A
5:55 AM68 °FPassing clouds.6 mph83%30.15 "HgN/A
4:55 AM68 °FPartly cloudy.6 mph78%30.15 "HgN/A
3:55 AM68 °FPartly cloudy.8 mph83%30.12 "HgN/A
2:55 AM68 °FPartly cloudy.9 mph78%30.15 "HgN/A
1:55 AM68 °FPassing clouds.8 mph78%30.18 "HgN/A
12:55 AM68 °FPassing clouds.7 mph78%30.18 "HgN/A
11:55 PM
Mon, May 2
68 °FPassing clouds.8 mph78%30.21 "HgN/A
10:55 PM68 °FPassing clouds.7 mph78%30.21 "HgN/A
9:55 PM68 °FPassing clouds.6 mph73%30.21 "HgN/A
8:55 PM68 °FPartly sunny.6 mph73%30.21 "HgN/A
7:55 PM70 °FBroken clouds.5 mph73%30.18 "HgN/A
6:55 PM70 °FPartly sunny.6 mph73%30.18 "HgN/A
5:55 PM72 °FPartly sunny.7 mph69%30.18 "HgN/A
4:55 PM72 °FPartly sunny.6 mph65%30.18 "HgN/A
3:55 PM72 °FPartly sunny.8 mph69%30.18 "HgN/A
2:55 PM72 °FScattered clouds.7 mph69%30.18 "HgN/A
Weather by CustomWeather, © 2016

See weather overviewHow to use our weather pages